Location: Beranovka
(49.9415°N, 12.8435°E)
Time: 00:04:28
(UTC+00:00)

Okean 2 - Pass Details

Date: 10 August 2020
Orbit: 561 x 576 km, 82.5° (Epoch: 23 September)

Event Time Altitude Azimuth Distance (km) Brightness Sun altitude
Rises 22:21:28 0° 354° (N) 2,773 8.3 -23.8°
Reaches altitude 10° 22:23:44 10° 1° (N) 1,873 7.0 -23.9°
Enters shadow 22:27:30 44° 66° (ENE) 791 4.1 -24.1°
